FENGYUN 1C DEB

Satellite information

Favourite Embed

Satellite Type and Status

DEBRISIN ORBIT

Key statistics

Satellite FENGYUN 1C DEB at a glance.

Uptime

9494

Days in orbit

Revolutions

≈ 14.2

Per day

Orbit

SSO

Sun Synchronous Orbit

Inclination

98.7

Latest

Satellite identification and parameters

Extended collection of information and parameters for FENGYUN 1C DEB.

Object identification

Identified? True

Debris? True

Object name: FENGYUN 1C DEB

International designator: 1999-025EHD

Object number (NORAD): 37435

Object ID (CCSDS): 37435

Country: PEOPLES REPUBLIC OF CHINA (PRC)

Current information (Y/N): Y

RCS size: SMALL

Orbital parameters

Period: 101.317 minutes

Inclination: 98.6613 deg

SMA: 7199.137 km

Apoapsis: 849.199 km

Periapsis: 792.805 km

RAAN: 166.2887 deg

Eccentricy: 0.0039167

Argument of periapsis: 292.2344 deg

Mean anomaly: 67.4681 deg

Mean motion: 14.21288089 rev/day

Mean motion (dot): 0.00002586 rev/day2

B* drag term: 0.0011969 1/REarth

Two-line elements (TLE)

Creation date: May 6, 2025, 3:54 a.m.

Reference frame: TEME

Reference center: EARTH

Epoch: May 5, 2025, 7:43 p.m. UTC

TLE line 0: 0 FENGYUN 1C DEB

TLE line 1: 1 37435U 99025EHD 25125.82169328 .00002586 00000-0 11969-2 0 9990

TLE line 2: 2 37435 98.6613 166.2887 0039167 292.2344 67.4681 14.21288089858003

Live tracking on map

Real-time ground track for satellite FENGYUN 1C DEB.

In-orbit conjunctions

A list of the most updated potential collisions computed for object FENGYUN 1C DEB.

Target Orbit TCA Probability of collision Miss distance Type
PEGASUS DEB LEO 2024-09-25 22:08:25 0.001062393 158.0 (m) DEBRIS
REX LEO 2024-09-14 16:00:36 0.0001125548 317.0 (m) PAYLOAD

Associated space launch

Chinese polar orbiting meteorological satellite

FENGYUN 1C DEB was lifted into orbit during the mission ‘Long March 4B | Feng Yun 1C’, on board a Long March 4B space rocket.

The launch took place on May 10, 1999, 1:33 a.m. from Launch Complex 7.

For more information about the launch, click the button.

Launch to space Long March 4B | Feng Yun 1C
Long March 4B | Feng Yun 1C

Agency: N/A

Status: Launch Successful

Launch date: May 10, 1999, 1:33 a.m. UTC

Rocket: Long March 4B

Launch pad: Launch Complex 7

Location: Taiyuan Satellite Launch Center, People's Republic of China

...

Latest news about this satellite

There are no fresh news available about this satellite. Check back as we update our databases every day.


Newsletter sign-up

Weekly statistics, charts and insights to help you stay on top of the space industry.